Year,Month,Day,Hour,Minute,Value (Times are PST for temperature in C)
2016,02,25,00,00,2.40
2016,02,25,00,01,2.30
2016,02,25,00,02,2.30
2016,02,25,00,03,2.30
2016,02,25,00,04,2.30
2016,02,25,00,05,2.30
2016,02,25,00,06,2.30
2016,02,25,00,07,2.30
2016,02,25,00,08,2.30
2016,02,25,00,09,2.30
2016,02,25,00,10,2.30
2016,02,25,00,11,2.20
2016,02,25,00,12,2.20
2016,02,25,00,13,2.20
2016,02,25,00,14,2.20
2016,02,25,00,15,2.20
2016,02,25,00,16,2.20
2016,02,25,00,17,2.20
2016,02,25,00,18,2.20
2016,02,25,00,19,2.20
2016,02,25,00,20,2.20
2016,02,25,00,21,2.20
2016,02,25,00,22,2.20
2016,02,25,00,23,2.20
2016,02,25,00,24,2.20
2016,02,25,00,25,2.20
2016,02,25,00,26,2.20
2016,02,25,00,27,2.20
2016,02,25,00,28,2.20
2016,02,25,00,29,2.20
2016,02,25,00,30,2.20
2016,02,25,00,31,2.10
2016,02,25,00,32,2.10
2016,02,25,00,33,2.10
2016,02,25,00,34,2.10
2016,02,25,00,35,2.10
2016,02,25,00,36,2.10
2016,02,25,00,37,2.10
2016,02,25,00,38,2.10
2016,02,25,00,39,2.10
2016,02,25,00,40,2.10
2016,02,25,00,41,2.10
2016,02,25,00,42,2.00
2016,02,25,00,43,2.00
2016,02,25,00,44,2.00
2016,02,25,00,45,2.00
2016,02,25,00,46,2.00
2016,02,25,00,47,2.00
2016,02,25,00,48,2.00
2016,02,25,00,49,2.00
2016,02,25,00,50,2.00
2016,02,25,00,51,2.00
2016,02,25,00,52,1.90
2016,02,25,00,53,1.90
2016,02,25,00,54,1.90
2016,02,25,00,55,1.90
2016,02,25,00,56,1.90
2016,02,25,00,57,1.90
2016,02,25,00,58,1.90
2016,02,25,00,59,1.90
2016,02,25,01,00,1.90
2016,02,25,01,01,1.90
2016,02,25,01,02,1.90
2016,02,25,01,03,1.90
2016,02,25,01,04,1.90
2016,02,25,01,05,1.90
2016,02,25,01,06,1.90
2016,02,25,01,07,1.90
2016,02,25,01,08,1.90
2016,02,25,01,09,1.90
2016,02,25,01,10,1.90
2016,02,25,01,11,1.90
2016,02,25,01,12,2.00
2016,02,25,01,13,2.00
2016,02,25,01,14,2.00
2016,02,25,01,15,2.00
2016,02,25,01,16,2.00
2016,02,25,01,17,2.00
2016,02,25,01,18,2.00
2016,02,25,01,19,1.90
2016,02,25,01,20,1.90
2016,02,25,01,21,1.90
2016,02,25,01,22,1.90
2016,02,25,01,23,1.90
2016,02,25,01,24,1.90
2016,02,25,01,25,1.90
2016,02,25,01,26,1.90
2016,02,25,01,27,1.90
2016,02,25,01,28,1.90
2016,02,25,01,29,1.90
2016,02,25,01,30,1.80
2016,02,25,01,31,1.80
2016,02,25,01,32,1.80
2016,02,25,01,33,1.80
2016,02,25,01,34,1.80
2016,02,25,01,35,1.80
2016,02,25,01,36,1.80
2016,02,25,01,37,1.80
2016,02,25,01,38,1.80
2016,02,25,01,39,1.80
2016,02,25,01,40,1.80
2016,02,25,01,41,1.80
2016,02,25,01,42,1.80
2016,02,25,01,43,1.80
2016,02,25,01,44,1.80
2016,02,25,01,45,1.70
2016,02,25,01,46,1.80
2016,02,25,01,47,1.80
2016,02,25,01,48,1.80
2016,02,25,01,49,1.80
2016,02,25,01,50,1.80
2016,02,25,01,51,1.80
2016,02,25,01,52,1.80
2016,02,25,01,53,1.80
2016,02,25,01,54,1.80
2016,02,25,01,55,1.70
2016,02,25,01,56,1.70
2016,02,25,01,57,1.70
2016,02,25,01,58,1.70
2016,02,25,01,59,1.70
2016,02,25,02,00,1.70
2016,02,25,02,01,1.70
2016,02,25,02,02,1.70
2016,02,25,02,03,1.70
2016,02,25,02,04,1.70
2016,02,25,02,05,1.70
2016,02,25,02,06,1.60
2016,02,25,02,07,1.60
2016,02,25,02,08,1.60
2016,02,25,02,09,1.60
2016,02,25,02,10,1.60
2016,02,25,02,11,1.60
2016,02,25,02,12,1.60
2016,02,25,02,13,1.60
2016,02,25,02,14,1.60
2016,02,25,02,15,1.60
2016,02,25,02,16,1.60
2016,02,25,02,17,1.50
2016,02,25,02,18,1.50
2016,02,25,02,19,1.50
2016,02,25,02,20,1.50
2016,02,25,02,21,1.50
2016,02,25,02,22,1.50
2016,02,25,02,23,1.50
2016,02,25,02,24,1.50
2016,02,25,02,25,1.50
2016,02,25,02,26,1.50
2016,02,25,02,27,1.50
2016,02,25,02,28,1.40
2016,02,25,02,29,1.40
2016,02,25,02,30,1.40
2016,02,25,02,31,1.40
2016,02,25,02,32,1.40
2016,02,25,02,33,1.40
2016,02,25,02,34,1.40
2016,02,25,02,35,1.40
2016,02,25,02,36,1.40
2016,02,25,02,37,1.40
2016,02,25,02,38,1.40
2016,02,25,02,39,1.40
2016,02,25,02,40,1.40
2016,02,25,02,41,1.40
2016,02,25,02,42,1.40
2016,02,25,02,43,1.40
2016,02,25,02,44,1.50
2016,02,25,02,45,1.50
2016,02,25,02,46,1.50
2016,02,25,02,47,1.50
2016,02,25,02,48,1.50
2016,02,25,02,49,1.40
2016,02,25,02,50,1.40
2016,02,25,02,51,1.40
2016,02,25,02,52,1.40
2016,02,25,02,53,1.40
2016,02,25,02,54,1.40
2016,02,25,02,55,1.40
2016,02,25,02,56,1.40
2016,02,25,02,57,1.40
2016,02,25,02,58,1.40
2016,02,25,02,59,1.30
2016,02,25,03,00,1.30
2016,02,25,03,01,1.30
2016,02,25,03,02,1.30
2016,02,25,03,03,1.30
2016,02,25,03,04,1.30
2016,02,25,03,05,1.30
2016,02,25,03,06,1.30
2016,02,25,03,07,1.30
2016,02,25,03,08,1.30
2016,02,25,03,09,1.30
2016,02,25,03,10,1.30
2016,02,25,03,11,1.30
2016,02,25,03,12,1.30
2016,02,25,03,13,1.30
2016,02,25,03,14,1.30
2016,02,25,03,15,1.30
2016,02,25,03,16,1.30
2016,02,25,03,17,1.30
2016,02,25,03,18,1.30
2016,02,25,03,19,1.30
2016,02,25,03,20,1.20
2016,02,25,03,21,1.20
2016,02,25,03,22,1.20
2016,02,25,03,23,1.20
2016,02,25,03,24,1.20
2016,02,25,03,25,1.20
2016,02,25,03,26,1.30
2016,02,25,03,27,1.30
2016,02,25,03,28,1.30
2016,02,25,03,29,1.30
2016,02,25,03,30,1.20
2016,02,25,03,31,1.20
2016,02,25,03,32,1.20
2016,02,25,03,33,1.20
2016,02,25,03,34,1.20
2016,02,25,03,35,1.30
2016,02,25,03,36,1.30
2016,02,25,03,37,1.30
2016,02,25,03,38,1.30
2016,02,25,03,39,1.30
2016,02,25,03,40,1.20
2016,02,25,03,41,1.20
2016,02,25,03,42,1.20
2016,02,25,03,43,1.20
2016,02,25,03,44,1.20
2016,02,25,03,45,1.20
2016,02,25,03,46,1.20
2016,02,25,03,47,1.20
2016,02,25,03,48,1.20
2016,02,25,03,49,1.20
2016,02,25,03,50,1.20
2016,02,25,03,51,1.20
2016,02,25,03,52,1.20
2016,02,25,03,53,1.20
2016,02,25,03,54,1.20
2016,02,25,03,55,1.20
2016,02,25,03,56,1.20
2016,02,25,03,57,1.20
2016,02,25,03,58,1.20
2016,02,25,03,59,1.20
2016,02,25,04,00,1.20
2016,02,25,04,01,1.20
2016,02,25,04,02,1.10
2016,02,25,04,03,1.10
2016,02,25,04,04,1.10
2016,02,25,04,05,1.10
2016,02,25,04,06,1.10
2016,02,25,04,07,1.10
2016,02,25,04,08,1.10
2016,02,25,04,09,1.10
2016,02,25,04,10,1.10
2016,02,25,04,11,1.10
2016,02,25,04,12,1.10
2016,02,25,04,13,1.10
2016,02,25,04,14,1.10
2016,02,25,04,15,1.10
2016,02,25,04,16,1.10
2016,02,25,04,17,1.10
2016,02,25,04,18,1.00
2016,02,25,04,19,1.00
2016,02,25,04,20,1.00
2016,02,25,04,21,1.00
2016,02,25,04,22,1.00
2016,02,25,04,23,1.00
2016,02,25,04,24,1.00
2016,02,25,04,25,1.00
2016,02,25,04,26,1.00
2016,02,25,04,27,1.00
2016,02,25,04,28,1.00
2016,02,25,04,29,0.90
2016,02,25,04,30,0.90
2016,02,25,04,31,1.00
2016,02,25,04,32,1.00
2016,02,25,04,33,0.90
2016,02,25,04,34,1.00
2016,02,25,04,35,1.00
2016,02,25,04,36,0.90
2016,02,25,04,37,1.00
2016,02,25,04,38,1.00
2016,02,25,04,39,1.00
2016,02,25,04,40,1.00
2016,02,25,04,41,1.00
2016,02,25,04,42,1.00
2016,02,25,04,43,1.00
2016,02,25,04,44,0.90
2016,02,25,04,45,1.00
2016,02,25,04,46,0.90
2016,02,25,04,47,1.00
2016,02,25,04,48,1.00
2016,02,25,04,49,1.00
2016,02,25,04,50,1.00
2016,02,25,04,51,1.00
2016,02,25,04,52,1.00
2016,02,25,04,53,1.00
2016,02,25,04,54,0.90
2016,02,25,04,55,0.90
2016,02,25,04,56,0.90
2016,02,25,04,57,0.90
2016,02,25,04,58,0.90
2016,02,25,04,59,0.90
2016,02,25,05,00,0.90
2016,02,25,05,01,0.80
2016,02,25,05,02,0.80
2016,02,25,05,03,0.80
2016,02,25,05,04,0.80
2016,02,25,05,05,0.80
2016,02,25,05,06,0.80
2016,02,25,05,07,0.80
2016,02,25,05,08,0.80
2016,02,25,05,09,0.80
2016,02,25,05,10,0.80
2016,02,25,05,11,0.80
2016,02,25,05,12,0.80
2016,02,25,05,13,0.80
2016,02,25,05,14,0.70
2016,02,25,05,15,0.70
2016,02,25,05,16,0.70
2016,02,25,05,17,0.70
2016,02,25,05,18,0.70
2016,02,25,05,19,0.70
2016,02,25,05,20,0.70
2016,02,25,05,21,0.70
2016,02,25,05,22,0.80
2016,02,25,05,23,0.80
2016,02,25,05,24,0.80
2016,02,25,05,25,0.70
2016,02,25,05,26,0.70
2016,02,25,05,27,0.70
2016,02,25,05,28,0.70
2016,02,25,05,29,0.70
2016,02,25,05,30,0.80
2016,02,25,05,31,0.80
2016,02,25,05,32,0.80
2016,02,25,05,33,0.80
2016,02,25,05,34,0.80
2016,02,25,05,35,0.80
2016,02,25,05,36,0.80
2016,02,25,05,37,0.80
2016,02,25,05,38,0.80
2016,02,25,05,39,0.80
2016,02,25,05,40,0.80
2016,02,25,05,41,0.80
2016,02,25,05,42,0.70
2016,02,25,05,43,0.70
2016,02,25,05,44,0.70
2016,02,25,05,45,0.70
2016,02,25,05,46,0.70
2016,02,25,05,47,0.70
2016,02,25,05,48,0.70
2016,02,25,05,49,0.70
2016,02,25,05,50,0.70
2016,02,25,05,51,0.70
2016,02,25,05,52,0.60
2016,02,25,05,53,0.60
2016,02,25,05,54,0.60
2016,02,25,05,55,0.60
2016,02,25,05,56,0.60
2016,02,25,05,57,0.60
2016,02,25,05,58,0.60
2016,02,25,05,59,0.60
2016,02,25,06,00,0.60
2016,02,25,06,01,0.60
2016,02,25,06,02,0.60
2016,02,25,06,03,0.60
2016,02,25,06,04,0.60
2016,02,25,06,05,0.60
2016,02,25,06,06,0.60
2016,02,25,06,07,0.60
2016,02,25,06,08,0.60
2016,02,25,06,09,0.60
2016,02,25,06,10,0.60
2016,02,25,06,11,0.60
2016,02,25,06,12,0.60
2016,02,25,06,13,0.60
2016,02,25,06,14,0.60
2016,02,25,06,15,0.60
2016,02,25,06,16,0.60
2016,02,25,06,17,0.60
2016,02,25,06,18,0.60
2016,02,25,06,19,0.60
2016,02,25,06,20,0.60
2016,02,25,06,21,0.60
2016,02,25,06,22,0.60
2016,02,25,06,23,0.60
2016,02,25,06,24,0.60
2016,02,25,06,25,0.60
2016,02,25,06,26,0.60
2016,02,25,06,27,0.60
2016,02,25,06,28,0.60
2016,02,25,06,29,0.60
2016,02,25,06,30,0.60
2016,02,25,06,31,0.60
2016,02,25,06,32,0.60
2016,02,25,06,33,0.60
2016,02,25,06,34,0.60
2016,02,25,06,35,0.60
2016,02,25,06,36,0.60
2016,02,25,06,37,0.60
2016,02,25,06,38,0.50
2016,02,25,06,39,0.50
2016,02,25,06,40,0.50
2016,02,25,06,41,0.50
2016,02,25,06,42,0.50
2016,02,25,06,43,0.50
2016,02,25,06,44,0.50
2016,02,25,06,45,0.50
2016,02,25,06,46,0.50
2016,02,25,06,47,0.50
2016,02,25,06,48,0.50
2016,02,25,06,49,0.50
2016,02,25,06,50,0.50
2016,02,25,06,51,0.50
2016,02,25,06,52,0.40
2016,02,25,06,53,0.50
2016,02,25,06,54,0.50
2016,02,25,06,55,0.40
2016,02,25,06,56,0.40
2016,02,25,06,57,0.40
2016,02,25,06,58,0.40
2016,02,25,06,59,0.40
2016,02,25,07,00,0.50
2016,02,25,07,01,0.50
2016,02,25,07,02,0.50
2016,02,25,07,03,0.50
2016,02,25,07,04,0.50
2016,02,25,07,05,0.50
2016,02,25,07,06,0.50
2016,02,25,07,07,0.50
2016,02,25,07,08,0.60
2016,02,25,07,09,0.60
2016,02,25,07,10,0.60
2016,02,25,07,11,0.60
2016,02,25,07,12,0.60
2016,02,25,07,13,0.60
2016,02,25,07,14,0.60
2016,02,25,07,15,0.60
2016,02,25,07,16,0.60
2016,02,25,07,17,0.60
2016,02,25,07,18,0.60
2016,02,25,07,19,0.60
2016,02,25,07,20,0.60
2016,02,25,07,21,0.60
2016,02,25,07,22,0.60
2016,02,25,07,23,0.60
2016,02,25,07,24,0.60
2016,02,25,07,25,0.60
2016,02,25,07,26,0.60
2016,02,25,07,27,0.60
2016,02,25,07,28,0.60
2016,02,25,07,29,0.60
2016,02,25,07,30,0.70
2016,02,25,07,31,0.70
2016,02,25,07,32,0.70
2016,02,25,07,33,0.70
2016,02,25,07,34,0.70
2016,02,25,07,35,0.70
2016,02,25,07,36,0.70
2016,02,25,07,37,0.80
2016,02,25,07,38,0.80
2016,02,25,07,39,0.80
2016,02,25,07,40,0.90
2016,02,25,07,41,0.90
2016,02,25,07,42,0.90
2016,02,25,07,43,0.90
2016,02,25,07,44,0.90
2016,02,25,07,45,0.90
2016,02,25,07,46,1.00
2016,02,25,07,47,1.00
2016,02,25,07,48,1.00
2016,02,25,07,49,1.10
2016,02,25,07,50,1.10
2016,02,25,07,51,1.20
2016,02,25,07,52,1.20
2016,02,25,07,53,1.20
2016,02,25,07,54,1.20
2016,02,25,07,55,1.20
2016,02,25,07,56,1.20
2016,02,25,07,57,1.30
2016,02,25,07,58,1.30
2016,02,25,07,59,1.30
2016,02,25,08,00,1.30
2016,02,25,08,01,1.30
2016,02,25,08,02,1.30
2016,02,25,08,03,1.30
2016,02,25,08,04,1.40
2016,02,25,08,05,1.40
2016,02,25,08,06,1.40
2016,02,25,08,07,1.40
2016,02,25,08,08,1.50
2016,02,25,08,09,1.50
2016,02,25,08,10,1.60
2016,02,25,08,11,1.60
2016,02,25,08,12,1.70
2016,02,25,08,13,1.70
2016,02,25,08,14,1.80
2016,02,25,08,15,1.80
2016,02,25,08,16,1.80
2016,02,25,08,17,1.90
2016,02,25,08,18,1.90
2016,02,25,08,19,1.90
2016,02,25,08,20,1.90
2016,02,25,08,21,1.90
2016,02,25,08,22,1.90
2016,02,25,08,23,1.90
2016,02,25,08,24,2.00
2016,02,25,08,25,2.00
2016,02,25,08,26,2.00
2016,02,25,08,27,2.10
2016,02,25,08,28,2.10
2016,02,25,08,29,2.10
2016,02,25,08,30,2.20
2016,02,25,08,31,2.20
2016,02,25,08,32,2.30
2016,02,25,08,33,2.30
2016,02,25,08,34,2.40
2016,02,25,08,35,2.50
2016,02,25,08,36,2.60
2016,02,25,08,37,2.60
2016,02,25,08,38,2.70
2016,02,25,08,39,2.70
2016,02,25,08,40,2.70
2016,02,25,08,41,2.80
2016,02,25,08,42,2.80
2016,02,25,08,43,2.80
2016,02,25,08,44,2.90
2016,02,25,08,45,2.90
2016,02,25,08,46,2.90
2016,02,25,08,47,3.00
2016,02,25,08,48,3.10
2016,02,25,08,49,3.10
2016,02,25,08,50,3.20
2016,02,25,08,51,3.20
2016,02,25,08,52,3.30
2016,02,25,08,53,3.40
2016,02,25,08,54,3.40
2016,02,25,08,55,3.50
2016,02,25,08,56,3.60
2016,02,25,08,57,3.60
2016,02,25,08,58,3.70
2016,02,25,08,59,3.70
2016,02,25,09,00,3.70
2016,02,25,09,01,3.70
2016,02,25,09,02,3.80
2016,02,25,09,03,3.80
2016,02,25,09,04,3.80
2016,02,25,09,05,3.90
2016,02,25,09,06,3.90
2016,02,25,09,07,3.90
2016,02,25,09,08,3.90
2016,02,25,09,09,4.00
2016,02,25,09,10,4.00
2016,02,25,09,11,4.10
2016,02,25,09,12,4.20
2016,02,25,09,13,4.30
2016,02,25,09,14,4.40
2016,02,25,09,15,4.40
2016,02,25,09,16,4.50
2016,02,25,09,17,4.60
2016,02,25,09,18,4.70
2016,02,25,09,19,4.70
2016,02,25,09,20,4.80
2016,02,25,09,21,4.90
2016,02,25,09,22,5.00
2016,02,25,09,23,5.10
2016,02,25,09,24,5.20
2016,02,25,09,25,5.20
2016,02,25,09,26,5.30
2016,02,25,09,27,5.40
2016,02,25,09,28,5.40
2016,02,25,09,29,5.50
2016,02,25,09,30,5.50
2016,02,25,09,31,5.60
2016,02,25,09,32,5.60
2016,02,25,09,33,5.70
2016,02,25,09,34,5.70
2016,02,25,09,35,5.70
2016,02,25,09,36,5.80
2016,02,25,09,37,5.80
2016,02,25,09,38,5.80
2016,02,25,09,39,5.70
2016,02,25,09,40,5.70
2016,02,25,09,41,5.70
2016,02,25,09,42,5.70
2016,02,25,09,43,5.70
2016,02,25,09,44,5.70
2016,02,25,09,45,5.70
2016,02,25,09,46,5.70
2016,02,25,09,47,5.70
2016,02,25,09,48,5.70
2016,02,25,09,49,5.70
2016,02,25,09,50,5.70
2016,02,25,09,51,5.80
2016,02,25,09,52,5.80
2016,02,25,09,53,5.80
2016,02,25,09,54,5.90
2016,02,25,09,55,5.90
2016,02,25,09,56,6.00
2016,02,25,09,57,6.10
2016,02,25,09,58,6.10
2016,02,25,09,59,6.20
2016,02,25,10,00,6.20
2016,02,25,10,01,6.30
2016,02,25,10,02,6.30
2016,02,25,10,03,6.40
2016,02,25,10,04,6.40
2016,02,25,10,05,6.50
2016,02,25,10,06,6.50
2016,02,25,10,07,6.50
2016,02,25,10,08,6.50
2016,02,25,10,09,6.60
2016,02,25,10,10,6.60
2016,02,25,10,11,6.70
2016,02,25,10,12,6.70
2016,02,25,10,13,6.70
2016,02,25,10,14,6.60
2016,02,25,10,15,6.60
2016,02,25,10,16,6.50
2016,02,25,10,17,6.50
2016,02,25,10,18,6.50
2016,02,25,10,19,6.50
2016,02,25,10,20,6.50
2016,02,25,10,21,6.50
2016,02,25,10,22,6.60
2016,02,25,10,23,6.60
2016,02,25,10,24,6.60
2016,02,25,10,25,6.60
2016,02,25,10,26,6.50
2016,02,25,10,27,6.50
2016,02,25,10,28,6.40
2016,02,25,10,29,6.40
2016,02,25,10,30,6.40
2016,02,25,10,31,6.40
2016,02,25,10,32,6.40
2016,02,25,10,33,6.40
2016,02,25,10,34,6.50
2016,02,25,10,35,6.50
2016,02,25,10,36,6.60
2016,02,25,10,37,6.60
2016,02,25,10,38,6.60
2016,02,25,10,39,6.60
2016,02,25,10,40,6.60
2016,02,25,10,41,6.60
2016,02,25,10,42,6.60
2016,02,25,10,43,6.70
2016,02,25,10,44,6.70
2016,02,25,10,45,6.70
2016,02,25,10,46,6.70
2016,02,25,10,47,6.70
2016,02,25,10,48,6.70
2016,02,25,10,49,6.70
2016,02,25,10,50,6.70
2016,02,25,10,51,6.70
2016,02,25,10,52,6.70
2016,02,25,10,53,6.70
2016,02,25,10,54,6.80
2016,02,25,10,55,6.80
2016,02,25,10,56,6.80
2016,02,25,10,57,6.80
2016,02,25,10,58,6.80
2016,02,25,10,59,6.80
2016,02,25,11,00,6.80
2016,02,25,11,01,6.80
2016,02,25,11,02,6.80
2016,02,25,11,03,6.80
2016,02,25,11,04,6.80
2016,02,25,11,05,6.80
2016,02,25,11,06,6.80
2016,02,25,11,07,6.80
2016,02,25,11,08,6.80
2016,02,25,11,09,6.80
2016,02,25,11,10,6.70
2016,02,25,11,11,6.70
2016,02,25,11,12,6.70
2016,02,25,11,13,6.70
2016,02,25,11,14,6.70
2016,02,25,11,15,6.70
2016,02,25,11,16,6.70
2016,02,25,11,17,6.70
2016,02,25,11,18,6.80
2016,02,25,11,19,6.80
2016,02,25,11,20,6.80
2016,02,25,11,21,6.80
2016,02,25,11,22,6.80
2016,02,25,11,23,6.80
2016,02,25,11,24,6.80
2016,02,25,11,25,6.90
2016,02,25,11,26,6.90
2016,02,25,11,27,6.90
2016,02,25,11,28,6.90
2016,02,25,11,29,6.90
2016,02,25,11,30,7.00
2016,02,25,11,31,7.00
2016,02,25,11,32,7.00
2016,02,25,11,33,7.00
2016,02,25,11,34,7.10
2016,02,25,11,35,7.10
2016,02,25,11,36,7.10
2016,02,25,11,37,7.10
2016,02,25,11,38,7.10
2016,02,25,11,39,7.20
2016,02,25,11,40,7.20
2016,02,25,11,41,7.20
2016,02,25,11,42,7.20
2016,02,25,11,43,7.30
2016,02,25,11,44,7.30
2016,02,25,11,45,7.30
2016,02,25,11,46,7.40
2016,02,25,11,47,7.40
2016,02,25,11,48,7.40
2016,02,25,11,49,7.40
2016,02,25,11,50,7.40
2016,02,25,11,51,7.40
2016,02,25,11,52,7.40
2016,02,25,11,53,7.50
2016,02,25,11,54,7.50
2016,02,25,11,55,7.50
2016,02,25,11,56,7.50
2016,02,25,11,57,7.40
2016,02,25,11,58,7.40
2016,02,25,11,59,7.30
2016,02,25,12,00,7.30
2016,02,25,12,01,7.30
2016,02,25,12,02,7.30
2016,02,25,12,03,7.30
2016,02,25,12,04,7.30
2016,02,25,12,05,7.30
2016,02,25,12,06,7.30
2016,02,25,12,07,7.30
2016,02,25,12,08,7.30
2016,02,25,12,09,7.30
2016,02,25,12,10,7.30
2016,02,25,12,11,7.30
2016,02,25,12,12,7.30
2016,02,25,12,13,7.30
2016,02,25,12,14,7.20
2016,02,25,12,15,7.20
2016,02,25,12,16,7.20
2016,02,25,12,17,7.20
2016,02,25,12,18,7.10
2016,02,25,12,19,7.10
2016,02,25,12,20,7.10
2016,02,25,12,21,7.10
2016,02,25,12,22,7.00
2016,02,25,12,23,7.00
2016,02,25,12,24,6.90
2016,02,25,12,25,6.90
2016,02,25,12,26,6.90
2016,02,25,12,27,6.90
2016,02,25,12,28,6.90
2016,02,25,12,29,6.90
2016,02,25,12,30,6.90
2016,02,25,12,31,6.90
2016,02,25,12,32,6.90
2016,02,25,12,33,6.90
2016,02,25,12,34,6.90
2016,02,25,12,35,6.90
2016,02,25,12,36,6.90
2016,02,25,12,37,6.90
2016,02,25,12,38,6.90
2016,02,25,12,39,6.90
2016,02,25,12,40,6.80
2016,02,25,12,41,6.80
2016,02,25,12,42,6.80
2016,02,25,12,43,6.80
2016,02,25,12,44,6.80
2016,02,25,12,45,6.80
2016,02,25,12,46,6.90
2016,02,25,12,47,6.90
2016,02,25,12,48,6.90
2016,02,25,12,49,7.00
2016,02,25,12,50,7.00
2016,02,25,12,51,7.10
2016,02,25,12,52,7.10
2016,02,25,12,53,7.20
2016,02,25,12,54,7.20
2016,02,25,12,55,7.30
2016,02,25,12,56,7.20
2016,02,25,12,57,7.20
2016,02,25,12,58,7.20
2016,02,25,12,59,7.10
2016,02,25,13,00,7.10
2016,02,25,13,01,7.10
2016,02,25,13,02,7.10
2016,02,25,13,03,7.10
2016,02,25,13,04,7.10
2016,02,25,13,05,7.10
2016,02,25,13,06,7.10
2016,02,25,13,07,7.10
2016,02,25,13,08,7.10
2016,02,25,13,09,7.00
2016,02,25,13,10,6.90
2016,02,25,13,11,7.00
2016,02,25,13,12,7.00
2016,02,25,13,13,7.00
2016,02,25,13,14,7.00
2016,02,25,13,15,7.00
2016,02,25,13,16,7.00
2016,02,25,13,17,7.10
2016,02,25,13,18,7.20
2016,02,25,13,19,7.20
2016,02,25,13,20,7.30
2016,02,25,13,21,7.30
2016,02,25,13,22,7.30
2016,02,25,13,23,7.30
2016,02,25,13,24,7.30
2016,02,25,13,25,7.30
2016,02,25,13,26,7.30
2016,02,25,13,27,7.40
2016,02,25,13,28,7.40
2016,02,25,13,29,7.40
2016,02,25,13,30,7.40
2016,02,25,13,31,7.40
2016,02,25,13,32,7.40
2016,02,25,13,33,7.40
2016,02,25,13,34,7.40
2016,02,25,13,35,7.50
2016,02,25,13,36,7.50
2016,02,25,13,37,7.60
2016,02,25,13,38,7.60
2016,02,25,13,39,7.60
2016,02,25,13,40,7.70
2016,02,25,13,41,7.70
2016,02,25,13,42,7.70
2016,02,25,13,43,7.60
2016,02,25,13,44,7.60
2016,02,25,13,45,7.60
2016,02,25,13,46,7.60
2016,02,25,13,47,7.60
2016,02,25,13,48,7.60
2016,02,25,13,49,7.60
2016,02,25,13,50,7.60
2016,02,25,13,51,7.60
2016,02,25,13,52,7.60
2016,02,25,13,53,7.70
2016,02,25,13,54,7.80
2016,02,25,13,55,7.80
2016,02,25,13,56,7.80
2016,02,25,13,57,7.80
2016,02,25,13,58,7.80
2016,02,25,13,59,7.80
2016,02,25,14,00,7.80
2016,02,25,14,01,7.80
2016,02,25,14,02,7.80
2016,02,25,14,03,7.80
2016,02,25,14,04,7.80
2016,02,25,14,05,7.90
2016,02,25,14,06,7.90
2016,02,25,14,07,7.90
2016,02,25,14,08,7.80
2016,02,25,14,09,7.80
2016,02,25,14,10,7.80
2016,02,25,14,11,7.70
2016,02,25,14,12,7.70
2016,02,25,14,13,7.70
2016,02,25,14,14,7.70
2016,02,25,14,15,7.70
2016,02,25,14,16,7.70
2016,02,25,14,17,7.70
2016,02,25,14,18,7.70
2016,02,25,14,19,7.70
2016,02,25,14,20,7.70
2016,02,25,14,21,7.60
2016,02,25,14,22,7.60
2016,02,25,14,23,7.60
2016,02,25,14,24,7.60
2016,02,25,14,25,7.60
2016,02,25,14,26,7.60
2016,02,25,14,27,7.70
2016,02,25,14,28,7.70
2016,02,25,14,29,7.70
2016,02,25,14,30,7.70
2016,02,25,14,31,7.80
2016,02,25,14,32,7.80
2016,02,25,14,33,7.80
2016,02,25,14,34,7.70
2016,02,25,14,35,7.70
2016,02,25,14,36,7.70
2016,02,25,14,37,7.70
2016,02,25,14,38,7.70
2016,02,25,14,39,7.70
2016,02,25,14,40,7.80
2016,02,25,14,41,7.80
2016,02,25,14,42,7.80
2016,02,25,14,43,7.80
2016,02,25,14,44,7.80
2016,02,25,14,45,7.90
2016,02,25,14,46,7.80
2016,02,25,14,47,7.80
2016,02,25,14,48,7.80
2016,02,25,14,49,7.80
2016,02,25,14,50,7.80
2016,02,25,14,51,7.90
2016,02,25,14,52,7.90
2016,02,25,14,53,7.90
2016,02,25,14,54,8.00
2016,02,25,14,55,8.00
2016,02,25,14,56,8.00
2016,02,25,14,57,8.10
2016,02,25,14,58,8.10
2016,02,25,14,59,8.00
2016,02,25,15,00,8.00
2016,02,25,15,01,8.00
2016,02,25,15,02,7.90
2016,02,25,15,03,8.00
2016,02,25,15,04,8.00
2016,02,25,15,05,8.00
2016,02,25,15,06,7.90
2016,02,25,15,07,7.90
2016,02,25,15,08,7.90
2016,02,25,15,09,7.90
2016,02,25,15,10,7.90
2016,02,25,15,11,7.90
2016,02,25,15,12,7.90
2016,02,25,15,13,8.00
2016,02,25,15,14,8.00
2016,02,25,15,15,8.00
2016,02,25,15,16,8.00
2016,02,25,15,17,8.00
2016,02,25,15,18,8.00
2016,02,25,15,19,8.10
2016,02,25,15,20,8.10
2016,02,25,15,21,8.20
2016,02,25,15,22,8.20
2016,02,25,15,23,8.20
2016,02,25,15,24,8.20
2016,02,25,15,25,8.20
2016,02,25,15,26,8.30
2016,02,25,15,27,8.30
2016,02,25,15,28,8.30
2016,02,25,15,29,8.30
2016,02,25,15,30,8.30
2016,02,25,15,31,8.40
2016,02,25,15,32,8.40
2016,02,25,15,33,8.40
2016,02,25,15,34,8.40
2016,02,25,15,35,8.40
2016,02,25,15,36,8.50
2016,02,25,15,37,8.50
2016,02,25,15,38,8.50
2016,02,25,15,39,8.50
2016,02,25,15,40,8.50
2016,02,25,15,41,8.50
2016,02,25,15,42,8.50
2016,02,25,15,43,8.50
2016,02,25,15,44,8.40
2016,02,25,15,45,8.40
2016,02,25,15,46,8.30
2016,02,25,15,47,8.30
2016,02,25,15,48,8.20
2016,02,25,15,49,8.20
2016,02,25,15,50,8.20
2016,02,25,15,51,8.20
2016,02,25,15,52,8.20
2016,02,25,15,53,8.20
2016,02,25,15,54,8.20
2016,02,25,15,55,8.20
2016,02,25,15,56,8.30
2016,02,25,15,57,8.30
2016,02,25,15,58,8.30
2016,02,25,15,59,8.30
2016,02,25,16,00,8.30
2016,02,25,16,01,8.40
2016,02,25,16,02,8.40
2016,02,25,16,03,8.40
2016,02,25,16,04,8.40
2016,02,25,16,05,8.40
2016,02,25,16,06,8.40
2016,02,25,16,07,8.40
2016,02,25,16,08,8.50
2016,02,25,16,09,8.50
2016,02,25,16,10,8.60
2016,02,25,16,11,8.60
2016,02,25,16,12,8.60
2016,02,25,16,13,8.60
2016,02,25,16,14,8.60
2016,02,25,16,15,8.60
2016,02,25,16,16,8.60
2016,02,25,16,17,8.50
2016,02,25,16,18,8.50
2016,02,25,16,19,8.50
2016,02,25,16,20,8.50
2016,02,25,16,21,8.50
2016,02,25,16,22,8.50
2016,02,25,16,23,8.50
2016,02,25,16,24,8.50
2016,02,25,16,25,8.60
2016,02,25,16,26,8.60
2016,02,25,16,27,8.60
2016,02,25,16,28,8.60
2016,02,25,16,29,8.60
2016,02,25,16,30,8.60
2016,02,25,16,31,8.60
2016,02,25,16,32,8.70
2016,02,25,16,33,8.70
2016,02,25,16,34,8.70
2016,02,25,16,35,8.70
2016,02,25,16,36,8.70
2016,02,25,16,37,8.70
2016,02,25,16,38,8.70
2016,02,25,16,39,8.70
2016,02,25,16,40,8.70
2016,02,25,16,41,8.60
2016,02,25,16,42,8.60
2016,02,25,16,43,8.60
2016,02,25,16,44,8.60
2016,02,25,16,45,8.60
2016,02,25,16,46,8.60
2016,02,25,16,47,8.60
2016,02,25,16,48,8.50
2016,02,25,16,49,8.50
2016,02,25,16,50,8.40
2016,02,25,16,51,8.40
2016,02,25,16,52,8.40
2016,02,25,16,53,8.40
2016,02,25,16,54,8.40
2016,02,25,16,55,8.40
2016,02,25,16,56,8.40
2016,02,25,16,57,8.40
2016,02,25,16,58,8.40
2016,02,25,16,59,8.40
2016,02,25,17,00,8.40
2016,02,25,17,01,8.40
2016,02,25,17,02,8.40
2016,02,25,17,03,8.30
2016,02,25,17,04,8.30
2016,02,25,17,05,8.30
2016,02,25,17,06,8.30
2016,02,25,17,07,8.30
2016,02,25,17,08,8.30
2016,02,25,17,09,8.30
2016,02,25,17,10,8.30
2016,02,25,17,11,8.30
2016,02,25,17,12,8.30
2016,02,25,17,13,8.30
2016,02,25,17,14,8.30
2016,02,25,17,15,8.30
2016,02,25,17,16,8.20
2016,02,25,17,17,8.20
2016,02,25,17,18,8.20
2016,02,25,17,19,8.20
2016,02,25,17,20,8.20
2016,02,25,17,21,8.20
2016,02,25,17,22,8.10
2016,02,25,17,23,8.10
2016,02,25,17,24,8.10
2016,02,25,17,25,8.00
2016,02,25,17,26,8.00
2016,02,25,17,27,7.90
2016,02,25,17,28,7.90
2016,02,25,17,29,7.90
2016,02,25,17,30,7.80
2016,02,25,17,31,7.80
2016,02,25,17,32,7.80
2016,02,25,17,33,7.70
2016,02,25,17,34,7.70
2016,02,25,17,35,7.70
2016,02,25,17,36,7.60
2016,02,25,17,37,7.60
2016,02,25,17,38,7.50
2016,02,25,17,39,7.40
2016,02,25,17,40,7.40
2016,02,25,17,41,7.30
2016,02,25,17,42,7.30
2016,02,25,17,43,7.20
2016,02,25,17,44,7.20
2016,02,25,17,45,7.10
2016,02,25,17,46,7.10
2016,02,25,17,47,7.00
2016,02,25,17,48,7.00
2016,02,25,17,49,6.90
2016,02,25,17,50,6.80
2016,02,25,17,51,6.80
2016,02,25,17,52,6.70
2016,02,25,17,53,6.60
2016,02,25,17,54,6.60
2016,02,25,17,55,6.50
2016,02,25,17,56,6.40
2016,02,25,17,57,6.40
2016,02,25,17,58,6.30
2016,02,25,17,59,6.30
2016,02,25,18,00,6.20
2016,02,25,18,01,6.20
2016,02,25,18,02,6.20
2016,02,25,18,03,6.10
2016,02,25,18,04,6.10
2016,02,25,18,05,6.00
2016,02,25,18,06,6.00